Regional Weather Roundup
Issued by NWS Jackson, KY

Home | Current Version | Previous Version | Text Only | Print | Product List | Glossary On
Versions: 1 2 3 4 5 6 7 8 9 10 11 12 13 14 15 16 17 18 19 20 21 22 23 24 25 26 27 28 29 30 31 32 33 34 35 36 37 38 39 40 41 42 43 44 45 46 47 48 49 50
000
ASUS43 KJKL 271210
RWRJKL

EAST KENTUCKY HOURLY WEATHER ROUNDUP
NATIONAL WEATHER SERVICE JACKSON KY
800 AM EDT SAT AUG 27 2016

NOTE: "FAIR" INDICATES FEW OR NO CLOUDS BELOW 12,000 FEET WITH
NO SIGNIFICANT WEATHER AND/OR OBSTRUCTIONS TO VISIBILITY.

* THESE REPORTS ARE NOT UNDER NWS QUALITY CONTROL AND MAY NOT
  REPORT WEATHER SUCH AS PRECIPITATION AND FOG.

KYZ079-080-083-085-087-088-110-112-115-119-120-271300
...EASTERN KENTUCKY...

CITY           SKY/WX    TMP DP  RH WIND       PRES   REMARKS
JACKSON        SUNNY     73  69  87 E3        30.14R
6HR MIN TEMP:  72; 6HR MAX TEMP:  76;

LONDON         SUNNY     71  68  90 CALM      30.13R
6HR MIN TEMP:  68; 6HR MAX TEMP:  73;

SOMERSET*      PTCLDY    70  70 100 CALM      30.12S
MONTICELLO*    PTCLDY   N/A N/A N/A W9        30.12S
WILLIAMSBURG*  CLOUDY    68  68 100 CALM      30.13R VSB 1/4
MIDDLESBORO*   FOG       68  68 100 CALM      30.16R VSB<1/4
6HR MIN TEMP:  67; 6HR MAX TEMP:  71;

HARLAN APT*    CLOUDY    68  66  94 CALM      30.17R
PIKE CO APT*     N/A     71  71 100 CALM      30.16R
BIG SANDY APT* SUNNY     72  72 100 CALM      30.14S
6HR MIN TEMP:  69; 6HR MAX TEMP:  73;

MOREHEAD APT*  SUNNY     75  70  83 CALM      30.14R
$$

KYZ035-036-041-042-044-050-067-078-099-271300
...CENTRAL KENTUCKY...

CITY           SKY/WX    TMP DP  RH WIND       PRES   REMARKS
MT STERLING*   CLOUDY    72  72 100 CALM      30.14R
FLEMING/MASON* CLOUDY    70  70  99 CALM      30.13R FOG
DANVILLE*      CLEAR     68  68 100 NW3       30.12R
LEXINGTON      PTCLDY    75  69  81 CALM      30.12R
6HR MIN TEMP:  72; 6HR MAX TEMP:  76;

FRANKFORT      CLOUDY    73  70  90 CALM      30.10R FOG
6HR MIN TEMP:  71; 6HR MAX TEMP:  75;

LOUISVILLE     CLOUDY    78  73  84 N3        30.08R
6HR MIN TEMP:  76; 6HR MAX TEMP:  81;

LEBANON*         N/A     73  70  88 E6        30.10R
GLASGOW*       CLEAR     73  73 100 CALM      30.09R
BOWLING GREEN  CLOUDY    73  70  90 CALM      30.08R
6HR MIN TEMP:  72; 6HR MAX TEMP:  77;

$$

KYZ091>093-OHZ055-061-077-WVZ005-015-034-035-042-271300
...SOUTHERN OHIO/WEST VIRGINIA...

CITY           SKY/WX    TMP DP  RH WIND       PRES   REMARKS
COVINGTON      PTSUNNY   75  73  93 CALM      30.11R FOG
COLUMBUS       PTSUNNY   73  66  78 E7        30.13R
DAYTON         PTSUNNY   72  69  90 E6        30.14R
WILMINGTON     CLOUDY    72  71  97 E5        30.12S
HUNTINGTON     FOG       73  71  93 E3        30.12S VSB 1
CHARLESTON     PTSUNNY   72  70  93 NE3       30.14S FOG
PINEVILLE*     FOG       68  65  90 MISG      30.24S VSB 1
BECKLEY        SUNNY     71  66  84 E5        30.24S
BLUEFIELD      FOG       66  66 100 E5        30.27R VSB 1/4
LOGAN CO APT*    N/A     72  70  94 CALM      30.17R FOG
$$

VAZ002-007-008-TNZ017-027-036-066-071-271300
...SOUTHWEST VIRGINIA/EAST TENNESSEE...

CITY           SKY/WX    TMP DP  RH WIND       PRES   REMARKS
WISE*          SUNNY     73  61  64 CALM      30.25R
JONESVILLE*      N/A     68  66  94 CALM      30.19R
ABINGDON*      SUNNY     71  68  90 E9        30.22R
BRISTOL        MOSUNNY   68  67  96 CALM      30.18R FOG
MORRISTOWN*    SUNNY     72  70  94 CALM      30.14R
SEVIERVILLE*   SUNNY     70  66  88 CALM      30.13R
KNOXVILLE      SUNNY     73  70  90 E3        30.12R
OAK RIDGE      CLOUDY    73  71  93 CALM      30.14R
CROSSVILLE     CLEAR     69  68  96 CALM      30.17R FOG
NASHVILLE      PTCLDY    74  71  91 CALM      30.09R
$$

...KEY TO REMARKS...
VSB - VISIBILITY IN MILES
WCI - WIND CHILL INDEX
HX  - HEAT INDEX

$$



USA.gov is the U.S. government's official web portal to all federal, state and local government web resources and services.